Tekamah, NE

11:12 AM CDT on April 25, 2017 (GMT -0500)
Tekamah

Weather History for KTQE - January, 2013

Change the Weather History Date:

Sunday, January 27, 2013

  Actual Average Record
Temperature  
Mean Temperature 37 °F -  
Max Temperature 39 °F 30 °F 60 °F (2006)
Min Temperature 35 °F 9 °F -19 °F (1950)
Degree Days  
Heating Degree Days 28    
Moisture  
Dew Point 34 °F    
Average Humidity 89    
Maximum Humidity 97    
Minimum Humidity 57    
Precipitation  
Precipitation 0.06 in - - ()
Sea Level Pressure  
Sea Level Pressure 29.83 in    
Wind  
Wind Speed 10 mph (SE)    
Max Wind Speed 15 mph    
Max Gust Speed -    
Visibility 3 miles    
Events Fog , Rain    
Averages and records for this station are not official NWS values.
T = Trace of Precipitation, MM = Missing Value Source: NWS Daily Summary

Daily Weather History Graph

Daily Weather History Graph

Search for Another Location

Airport or City:

Trip Planner

Search our weather history database for the weather conditions in past years. The results will help you decide how hot, cold, wet, or windy it might be!

Date:

Astronomy

Jan. 27, 2013 Rise Set
Actual Time 7:41 AM CST 5:34 PM CST
Civil Twilight 7:11 AM CST 6:04 PM CST
Nautical Twilight 6:38 AM CST 6:37 PM CST
Astronomical Twilight 6:05 AM CST 7:10 PM CST
Moon 6:31 PM CST (1/27) 7:33 AM CST (1/27)
Length of Visible Light 10h 52m
Length of Day
9h 52m
Full, 100% of the Moon is Illuminated
Jan 27
Full
Feb 3
Last Quarter
Feb 10
New
Feb 17
First Quarter
Feb 25
Full

Hourly Weather History & Observations

Time (CST) Temp. Windchill Dew Point Humidity Pressure Visibility Wind Dir Wind Speed Gust Speed Precip Events Conditions
12:54 AM 37.0 °F 29.3 °F 25.0 °F 62% 30.00 in 9.0 mi SE 11.5 mph - N/A   Overcast
1:54 AM 37.9 °F 29.2 °F 24.1 °F 57% 29.97 in 9.0 mi SE 15.0 mph - N/A   Overcast
2:41 AM 37.4 °F 28.9 °F 24.8 °F 60% 29.96 in 9.0 mi SSE 13.8 mph - N/A   Overcast
2:54 AM 37.9 °F 30.0 °F 25.0 °F 60% 29.96 in 9.0 mi SSE 12.7 mph - N/A   Overcast
3:54 AM 37.9 °F 30.5 °F 26.1 °F 62% 29.94 in 9.0 mi SSE 11.5 mph - N/A   Overcast
4:54 AM 36.0 °F 27.5 °F 30.9 °F 82% 29.92 in 5.0 mi SE 12.7 mph - 0.01 in Rain Light Rain
5:29 AM 35.6 °F 26.2 °F 32.0 °F 87% 29.89 in 4.0 mi SE 15.0 mph - 0.01 in Rain Light Rain
6:01 AM 35.6 °F 26.2 °F 33.8 °F 93% 29.86 in 1.8 mi ESE 15.0 mph - 0.01 in Rain Light Rain
6:05 AM 35.6 °F 26.6 °F 33.8 °F 93% 29.87 in 2.0 mi SE 13.8 mph - 0.01 in Rain Light Rain
6:18 AM 35.6 °F 26.6 °F 33.8 °F 93% 29.88 in 3.0 mi SE 13.8 mph - 0.01 in Rain Light Rain
6:31 AM 35.6 °F 27.5 °F 33.8 °F 93% 29.88 in 2.5 mi SE 11.5 mph - 0.01 in Rain Light Rain
6:42 AM 35.6 °F 27.5 °F 33.8 °F 93% 29.88 in 3.0 mi SSE 11.5 mph - 0.01 in   Overcast
6:54 AM 36.0 °F 28.0 °F 34.0 °F 93% 29.88 in 3.0 mi SE 11.5 mph - 0.01 in   Overcast
7:17 AM 35.6 °F 27.1 °F 33.8 °F 93% 29.86 in 4.0 mi SE 12.7 mph - N/A   Overcast
7:32 AM 35.6 °F 27.1 °F 33.8 °F 93% 29.85 in 4.0 mi SE 12.7 mph - N/A   Overcast
7:54 AM 36.0 °F 27.5 °F 34.0 °F 93% 29.87 in 4.0 mi SSE 12.7 mph - N/A   Overcast
8:31 AM 35.6 °F 28.0 °F 33.8 °F 93% 29.84 in 2.5 mi SE 10.4 mph - N/A   Overcast
8:42 AM 37.4 °F 29.3 °F 33.8 °F 87% 29.84 in 3.0 mi SE 12.7 mph - N/A   Overcast
8:54 AM 37.0 °F 29.8 °F 34.0 °F 89% 29.85 in 3.0 mi SE 10.4 mph - N/A   Overcast
9:01 AM 37.4 °F 29.8 °F 33.8 °F 87% 29.83 in 3.0 mi SE 11.5 mph - N/A   Overcast
9:54 AM 37.0 °F 28.9 °F 34.0 °F 89% 29.83 in 3.0 mi SE 12.7 mph - N/A   Overcast
10:22 AM 37.4 °F 29.3 °F 35.6 °F 93% 29.81 in 2.0 mi SE 12.7 mph - N/A   Overcast
10:43 AM 37.4 °F 31.4 °F 35.6 °F 93% 29.81 in 1.5 mi ESE 8.1 mph - N/A   Overcast
10:54 AM 37.0 °F 29.8 °F 35.1 °F 93% 29.82 in 0.8 mi ESE 10.4 mph - N/A   Overcast
11:14 AM 37.4 °F 31.4 °F 35.6 °F 93% 29.80 in 1.0 mi SE 8.1 mph - N/A   Overcast
11:23 AM 37.4 °F 31.4 °F 35.6 °F 93% 29.80 in 0.8 mi SE 8.1 mph - N/A   Overcast
11:36 AM 37.4 °F 31.4 °F 35.6 °F 93% 29.80 in 0.5 mi SE 8.1 mph - N/A Fog Fog
11:54 AM 37.0 °F 31.6 °F 36.0 °F 96% 29.81 in 0.5 mi SE 6.9 mph - N/A Fog Fog
12:54 PM 37.9 °F 33.5 °F 37.0 °F 97% 29.76 in 0.5 mi ESE 5.8 mph - 0.01 in Fog Fog
1:54 PM 39.0 °F 34.8 °F 37.0 °F 93% 29.73 in 0.5 mi ESE 5.8 mph - 0.01 in Fog Fog
2:54 PM 39.9 °F 37.8 °F 37.9 °F 93% 29.72 in 0.5 mi East 3.5 mph - N/A Fog Fog
3:54 PM 39.0 °F 36.8 °F 37.9 °F 96% 29.72 in 0.2 mi ENE 3.5 mph - 0.01 in Fog Fog
4:54 PM 37.9 °F 34.4 °F 36.0 °F 93% 29.73 in 0.2 mi North 4.6 mph - 0.01 in Fog Fog
5:54 PM 37.0 °F 32.4 °F 35.1 °F 93% 29.74 in 0.2 mi NNW 5.8 mph - N/A Fog Fog
6:54 PM 37.0 °F 32.4 °F 36.0 °F 96% 29.76 in 0.2 mi NNW 5.8 mph - N/A Fog Fog
7:54 PM 37.0 °F 32.4 °F 35.1 °F 93% 29.77 in 0.2 mi NW 5.8 mph - N/A Fog Fog
8:54 PM 37.0 °F 33.3 °F 35.1 °F 93% 29.78 in 0.5 mi WNW 4.6 mph - N/A Fog Fog
9:07 PM 37.4 °F 33.8 °F 35.6 °F 93% 29.78 in 1.0 mi WNW 4.6 mph - N/A   Overcast
9:27 PM 37.4 °F 32.8 °F 35.6 °F 93% 29.78 in 2.0 mi NW 5.8 mph - N/A   Overcast
9:45 PM 37.4 °F 34.9 °F 35.6 °F 93% 29.79 in 2.5 mi WNW 3.5 mph - N/A   Overcast
9:54 PM 37.0 °F 34.5 °F 36.0 °F 96% 29.80 in 2.0 mi WNW 3.5 mph - N/A   Overcast
10:10 PM 37.4 °F 34.9 °F 35.6 °F 93% 29.79 in 1.5 mi WNW 3.5 mph - N/A   Overcast
10:31 PM 37.4 °F 34.9 °F 35.6 °F 93% 29.79 in 0.5 mi WNW 3.5 mph - N/A Fog Fog
10:54 PM 37.0 °F - 36.0 °F 96% 29.81 in 0.2 mi Calm Calm - N/A Fog Fog
11:54 PM 37.0 °F - 36.0 °F 96% 29.82 in 0.2 mi Calm Calm - N/A Fog Fog